Weather History for Ruidoso, NM

Change the Weather History Date:

Tuesday, December 11, 2012

  Actual Average Record
Temperature  
Mean Temperature 28 °F -  
Max Temperature 33 °F 46 °F 64 °F (2004)
Min Temperature 24 °F 26 °F 14 °F (1998)
Degree Days  
Heating Degree Days 36    
Moisture  
Dew Point 7 °F    
Average Humidity 39    
Maximum Humidity 47    
Minimum Humidity 30    
Precipitation  
Precipitation 0.00 in - - ()
Sea Level Pressure  
Sea Level Pressure 30.05 in    
Wind  
Wind Speed 12 mph (NW)    
Max Wind Speed 20 mph    
Max Gust Speed 32 mph    
Visibility 10 miles    
Events Rain    
Averages and records for this station are not official NWS values.
T = Trace of Precipitation, MM = Missing Value Source: NWS Daily Summary

Daily Weather History Graph

Daily Weather History Graph

Search for Another Location

Airport:

Trip Planner

Search our weather history database for the weather conditions in past years. The results will help you decide how hot, cold, wet, or windy it might be!

Date:

Astronomy

Dec. 11, 2012 Rise Set
Actual Time 6:56 AM MST 4:54 PM MST
Civil Twilight 6:29 AM MST 5:22 PM MST
Nautical Twilight 5:58 AM MST 5:53 PM MST
Astronomical Twilight 5:27 AM MST 6:23 PM MST
Moon 4:57 AM MST (12/11) 3:34 PM MST (12/11)
Length of Visible Light 10h 53m
Length of Day
9h 58m
Waning Crescent, 4% of the Moon is Illuminated
Dec 11
Waning Crescent
Dec 13
New
Dec 19
First Quarter
Dec 28
Full
Jan 4
Last Quarter

Hourly Weather History & Observations

Time (MST) Temp. Windchill Dew Point Humidity Pressure Visibility Wind Dir Wind Speed Gust Speed Precip Events Conditions
12:15 AM 28.4 °F 18.0 °F 5.0 °F 37% 30.02 in 10.0 mi NNW 12.7 mph 18.4 mph N/A Rain Light Freezing Rain
12:35 AM 28.4 °F 18.0 °F 5.0 °F 37% 30.01 in 10.0 mi NNW 12.7 mph 19.6 mph N/A Rain Light Freezing Rain
12:55 AM 28.4 °F 17.5 °F 5.0 °F 37% 30.01 in 10.0 mi NNW 13.8 mph 20.7 mph N/A Rain Light Freezing Rain
1:15 AM 28.4 °F 19.1 °F 6.8 °F 40% 30.01 in 10.0 mi NW 10.4 mph 18.4 mph N/A Rain Light Freezing Rain
1:35 AM 26.6 °F 16.8 °F 5.0 °F 40% 30.01 in 10.0 mi NNW 10.4 mph 17.3 mph N/A Rain Light Freezing Rain
1:55 AM 26.6 °F 15.7 °F 6.8 °F 43% 30.01 in 10.0 mi NW 12.7 mph 18.4 mph N/A Rain Light Freezing Rain
2:15 AM 26.6 °F 15.7 °F 6.8 °F 43% 30.00 in 10.0 mi NW 12.7 mph 16.1 mph N/A Rain Light Freezing Rain
2:35 AM 26.6 °F 15.7 °F 6.8 °F 43% 30.00 in 10.0 mi NW 12.7 mph 17.3 mph N/A Rain Light Freezing Rain
2:55 AM 26.6 °F 17.5 °F 6.8 °F 43% 29.99 in 10.0 mi NNW 9.2 mph 16.1 mph N/A Rain Light Freezing Rain
3:15 AM 26.6 °F 15.2 °F 6.8 °F 43% 29.99 in 10.0 mi NW 13.8 mph 20.7 mph N/A Rain Light Freezing Rain
3:35 AM 28.4 °F 17.0 °F 6.8 °F 40% 29.99 in 10.0 mi NNW 15.0 mph 21.9 mph N/A Rain Light Freezing Rain
3:55 AM 28.4 °F 15.8 °F 6.8 °F 40% 29.99 in 10.0 mi NW 18.4 mph 32.2 mph N/A Rain Light Freezing Rain
4:15 AM 26.6 °F 13.8 °F 6.8 °F 43% 29.99 in 10.0 mi NW 17.3 mph 25.3 mph N/A Rain Light Freezing Rain
4:35 AM 26.6 °F 16.2 °F 6.8 °F 43% 29.99 in 10.0 mi NW 11.5 mph 20.7 mph N/A Rain Light Freezing Rain
4:55 AM 26.6 °F 15.2 °F 8.6 °F 47% 29.99 in 10.0 mi NW 13.8 mph 21.9 mph N/A Rain Light Freezing Rain
5:15 AM 26.6 °F 20.0 °F 6.8 °F 43% 30.00 in 10.0 mi North 5.8 mph - N/A Rain Light Freezing Rain
5:35 AM 24.8 °F 15.3 °F 6.8 °F 46% 30.00 in 10.0 mi NNW 9.2 mph - N/A Rain Light Freezing Rain
5:55 AM 24.8 °F 14.6 °F 6.8 °F 46% 30.02 in 10.0 mi North 10.4 mph - N/A Rain Light Freezing Rain
6:15 AM 24.8 °F 13.4 °F 6.8 °F 46% 30.02 in 10.0 mi North 12.7 mph 17.3 mph N/A Rain Light Freezing Rain
6:35 AM 24.8 °F 14.0 °F 6.8 °F 46% 30.02 in 10.0 mi NW 11.5 mph 18.4 mph N/A Rain Light Freezing Rain
6:55 AM 24.8 °F 16.1 °F 6.8 °F 46% 30.04 in 10.0 mi North 8.1 mph 16.1 mph N/A Rain Light Freezing Rain
7:15 AM 24.8 °F 16.1 °F 6.8 °F 46% 30.05 in 10.0 mi NNW 8.1 mph - N/A Rain Light Freezing Rain
7:35 AM 24.8 °F 15.3 °F 6.8 °F 46% 30.06 in 10.0 mi NW 9.2 mph - N/A Rain Light Freezing Rain
7:55 AM 24.8 °F 14.0 °F 6.8 °F 46% 30.05 in 10.0 mi WNW 11.5 mph - N/A Rain Light Freezing Rain
8:15 AM 26.6 °F 14.7 °F 8.6 °F 47% 30.05 in 10.0 mi WNW 15.0 mph 20.7 mph N/A Rain Light Freezing Rain
8:35 AM 26.6 °F 15.2 °F 8.6 °F 47% 30.06 in 10.0 mi WNW 13.8 mph 25.3 mph N/A Rain Light Freezing Rain
8:55 AM 28.4 °F 16.2 °F 8.6 °F 43% 30.07 in 10.0 mi WNW 17.3 mph 24.2 mph N/A Rain Light Freezing Rain
9:15 AM 28.4 °F 16.6 °F 8.6 °F 43% 30.08 in 10.0 mi WNW 16.1 mph 24.2 mph N/A Rain Light Freezing Rain
9:35 AM 28.4 °F 16.6 °F 8.6 °F 43% 30.08 in 10.0 mi WNW 16.1 mph 24.2 mph N/A Rain Light Freezing Rain
9:55 AM 28.4 °F 15.4 °F 10.4 °F 47% 30.09 in 10.0 mi NW 19.6 mph 24.2 mph N/A Rain Light Freezing Rain
10:15 AM 30.2 °F 17.8 °F 8.6 °F 40% 30.09 in 10.0 mi NW 19.6 mph 27.6 mph N/A Rain Light Freezing Rain
10:35 AM 30.2 °F 18.1 °F 8.6 °F 40% 30.08 in 10.0 mi NW 18.4 mph 32.2 mph N/A Rain Light Freezing Rain
10:55 AM 32.0 °F 21.6 °F 8.6 °F 38% 30.08 in 10.0 mi NW 15.0 mph 26.5 mph N/A Rain Light Rain
11:15 AM 32.0 °F 21.2 °F 8.6 °F 38% 30.09 in 10.0 mi WNW 16.1 mph 25.3 mph N/A Rain Light Rain
11:35 AM 32.0 °F 21.2 °F 8.6 °F 38% 30.08 in 10.0 mi NW 16.1 mph 20.7 mph N/A Rain Light Rain
11:55 AM 32.0 °F 23.0 °F 8.6 °F 38% 30.08 in 10.0 mi NW 11.5 mph 21.9 mph N/A Rain Light Rain
12:15 PM 32.0 °F 21.6 °F 8.6 °F 38% 30.07 in 10.0 mi NW 15.0 mph 24.2 mph N/A Rain Light Rain
12:35 PM 32.0 °F 21.2 °F 8.6 °F 38% 30.07 in 10.0 mi NW 16.1 mph 23.0 mph N/A Rain Light Rain
12:55 PM 32.0 °F 20.8 °F 6.8 °F 35% 30.07 in 10.0 mi NW 17.3 mph 23.0 mph N/A Rain Light Rain
1:15 PM 33.8 °F 24.3 °F 8.6 °F 35% 30.06 in 10.0 mi NW 13.8 mph 19.6 mph N/A Rain Light Rain
1:35 PM 32.0 °F 22.1 °F 6.8 °F 35% 30.06 in 10.0 mi NNW 13.8 mph 23.0 mph N/A Rain Light Rain
1:55 PM 32.0 °F 22.5 °F 6.8 °F 35% 30.05 in 10.0 mi WNW 12.7 mph 20.7 mph N/A Rain Light Rain
2:15 PM 32.0 °F 24.2 °F 5.0 °F 32% 30.04 in 10.0 mi NW 9.2 mph 20.7 mph N/A Rain Light Rain
2:35 PM 33.8 °F 24.8 °F 5.0 °F 30% 30.04 in 10.0 mi NW 12.7 mph 20.7 mph N/A Rain Light Rain
2:55 PM 33.8 °F 24.8 °F 6.8 °F 32% 30.04 in 10.0 mi WNW 12.7 mph 19.6 mph N/A Rain Light Rain
3:15 PM 33.8 °F 22.8 °F 5.0 °F 30% 30.05 in 10.0 mi NW 18.4 mph - N/A Rain Light Rain
3:35 PM 33.8 °F 24.8 °F 5.0 °F 30% 30.06 in 10.0 mi NW 12.7 mph 24.2 mph N/A Rain Light Rain
3:55 PM 33.8 °F 24.8 °F 6.8 °F 32% 30.07 in 10.0 mi WNW 12.7 mph 18.4 mph N/A Rain Light Rain
4:15 PM 32.0 °F 21.6 °F 5.0 °F 32% 30.07 in 10.0 mi WNW 15.0 mph 21.9 mph N/A   Clear
4:35 PM 32.0 °F 22.1 °F 5.0 °F 32% 30.07 in 10.0 mi WNW 13.8 mph 20.7 mph N/A   Clear
4:55 PM 32.0 °F 22.5 °F 5.0 °F 32% 30.07 in 10.0 mi West 12.7 mph - N/A   Clear
5:15 PM 32.0 °F 23.0 °F 5.0 °F 32% 30.07 in 10.0 mi WNW 11.5 mph - N/A   Clear
5:35 PM 30.2 °F 20.8 °F 5.0 °F 34% 30.07 in 10.0 mi WNW 11.5 mph - N/A   Clear
5:55 PM 30.2 °F 22.6 °F 5.0 °F 34% 30.07 in 10.0 mi WNW 8.1 mph - N/A   Clear
6:15 PM 28.4 °F - 5.0 °F 37% 30.08 in 10.0 mi Calm Calm - N/A   Clear
6:35 PM 28.4 °F 22.2 °F 3.2 °F 34% 30.08 in 10.0 mi WNW 5.8 mph - N/A   Clear
6:55 PM 30.2 °F 22.6 °F 5.0 °F 34% 30.08 in 10.0 mi WNW 8.1 mph - N/A   Clear
7:15 PM 28.4 °F 24.6 °F 5.0 °F 37% 30.09 in 10.0 mi WNW 3.5 mph - N/A   Clear
7:35 PM 26.6 °F 20.0 °F 5.0 °F 40% 30.09 in 10.0 mi West 5.8 mph - N/A   Clear
7:55 PM 32.0 °F 26.4 °F 5.0 °F 32% 30.09 in 10.0 mi WNW 5.8 mph - N/A   Clear
8:15 PM 32.0 °F 24.8 °F 5.0 °F 32% 30.10 in 10.0 mi WNW 8.1 mph - N/A   Clear
8:35 PM 32.0 °F 22.5 °F 6.8 °F 35% 30.10 in 10.0 mi WNW 12.7 mph - N/A   Clear
8:55 PM 32.0 °F 25.6 °F 6.8 °F 35% 30.09 in 10.0 mi NW 6.9 mph - N/A   Clear
9:15 PM 32.0 °F 28.7 °F 5.0 °F 32% 30.09 in 10.0 mi North 3.5 mph - N/A   Clear
9:35 PM 28.4 °F 22.2 °F 5.0 °F 37% 30.09 in 10.0 mi NNW 5.8 mph - N/A   Clear
9:55 PM 28.4 °F - 6.8 °F 40% 30.08 in 10.0 mi Calm Calm - N/A   Clear
10:15 PM 26.6 °F 22.6 °F 5.0 °F 40% 30.09 in 10.0 mi South 3.5 mph - N/A   Clear
10:35 PM 26.6 °F 20.0 °F 5.0 °F 40% 30.10 in 10.0 mi SSW 5.8 mph - N/A   Clear
10:55 PM 26.6 °F 20.0 °F 5.0 °F 40% 30.10 in 10.0 mi SW 5.8 mph - N/A   Clear
11:15 PM 26.6 °F 20.0 °F 6.8 °F 43% 30.10 in 10.0 mi WSW 5.8 mph - N/A   Clear
11:35 PM 24.8 °F 15.3 °F 6.8 °F 46% 30.10 in 10.0 mi WSW 9.2 mph - N/A   Clear
11:55 PM 24.8 °F 17.9 °F 6.8 °F 46% 30.10 in 10.0 mi SW 5.8 mph - N/A   Clear